(678) Fredegundis
ephemeris date magn radius delta ra dec elong phase
Today27 Jul 202614.73.025 AU2.524 AU15h21m-22°07'110.0°18.4°
Opposition6 Sep 202711.82.193 AU1.193 AU22h47m+03°09'169.9°4.6°
(678) Fredegundis - 2026-07-27
astro.vanbuitenen.nl


 
-1 year
-1 month
-1 day
Now
+1 day
+1 month
+1 year

The interactive orbit chart above shows the body's path through the solar system and its position at the given date. Green and blue lines are shown perpendicular to the ecliptic plane: Green if the path is above the ecliptic plane, blue if it is below. (Left-click and drag to rotate the view; Right-click and drag to move the view; Use scroll wheel to zoom in our out.)

The orbital elements of Fredegundis are:

            e (Eccentricity)                : 0.2198745
            a (Semimajor axis)              : 2.5723710
            i (Inclination)                 : 6.09735
            Ω (Longitude of ascending node) : 281.05787
            ω (Argument of perihelion)      : 121.04897
            M (Mean anomaly)                : 212.93130
            Epoch                           : 2026 Jun 09

            L (Longitude of perihelion)     : 222.25066
            B (Latitude of perihelion)      : 5.22113
            P (Orbital period in years)     : 4.13            
        

The light curve chart below shows the estimated development of the minor planet's magnitude.


The all-sky chart below shows the path of the minor planet over the same period as the light curve. The current position is marked yellow.





The following chart shows the path of the minor planet in the next few days. The field of view is optimized for (~10x50) binoculars and finderscopes.




Ephemerides:
Date       Time       RA (2000)    DEC (2000)    delta   radius  elong  phase   PA    magn
2026-07-27 00:00 UT   15 21 17.7   -22 07 41     2.524    3.025  110.0   18.4   103   14.7 
2026-07-27 07:24 UT   15 21 22.7   -22 07 16     2.527    3.025  109.7   18.4   103   14.7 
2026-07-28 00:00 UT   15 21 34.2   -22 06 23     2.536    3.024  109.1   18.5   103   14.7 
2026-07-29 00:00 UT   15 21 51.9   -22 05 11     2.548    3.023  108.2   18.6   104   14.7 
2026-07-30 00:00 UT   15 22 10.9   -22 04 04     2.560    3.021  107.3   18.7   104   14.7 
2026-07-31 00:00 UT   15 22 31.2   -22 03 03     2.572    3.020  106.4   18.8   104   14.7 
2026-08-01 00:00 UT   15 22 52.8   -22 02 07     2.584    3.019  105.5   18.9   104   14.8 
2026-08-02 00:00 UT   15 23 15.7   -22 01 16     2.596    3.018  104.7   19.0   104   14.8 
2026-08-03 00:00 UT   15 23 39.8   -22 00 31     2.609    3.016  103.8   19.1   104   14.8 
2026-08-04 00:00 UT   15 24 05.1   -21 59 51     2.621    3.015  102.9   19.1   104   14.8 
2026-08-05 00:00 UT   15 24 31.7   -21 59 16     2.634    3.014  102.1   19.2   104   14.8 
2026-08-06 00:00 UT   15 24 59.5   -21 58 46     2.646    3.013  101.2   19.3   104   14.8 
2026-08-07 00:00 UT   15 25 28.4   -21 58 21     2.659    3.011  100.4   19.3   104   14.8 
2026-08-08 00:00 UT   15 25 58.6   -21 58 01     2.671    3.010   99.5   19.4   104   14.8 
2026-08-09 00:00 UT   15 26 30.0   -21 57 46     2.684    3.009   98.7   19.5   104   14.8 
2026-08-10 00:00 UT   15 27 02.5   -21 57 35     2.696    3.008   97.9   19.5   104   14.9 
2026-08-11 00:00 UT   15 27 36.2   -21 57 30     2.709    3.006   97.0   19.5   104   14.9 
2026-08-12 00:00 UT   15 28 11.0   -21 57 29     2.722    3.005   96.2   19.6   104   14.9 
2026-08-13 00:00 UT   15 28 47.0   -21 57 32     2.734    3.004   95.4   19.6   104   14.9 
2026-08-14 00:00 UT   15 29 24.1   -21 57 40     2.747    3.002   94.6   19.7   104   14.9 
2026-08-15 00:00 UT   15 30 02.3   -21 57 53     2.760    3.001   93.7   19.7   104   14.9 
2026-08-16 00:00 UT   15 30 41.6   -21 58 09     2.772    3.000   92.9   19.7   104   14.9 
2026-08-17 00:00 UT   15 31 22.0   -21 58 30     2.785    2.998   92.1   19.7   104   14.9 
2026-08-18 00:00 UT   15 32 03.4   -21 58 55     2.798    2.997   91.3   19.7   104   14.9 
2026-08-19 00:00 UT   15 32 45.9   -21 59 24     2.810    2.996   90.5   19.7   104   14.9 
2026-08-20 00:00 UT   15 33 29.5   -21 59 56     2.823    2.994   89.7   19.8   104   15.0 
2026-08-21 00:00 UT   15 34 14.1   -22 00 33     2.836    2.993   88.9   19.8   104   15.0 
2026-08-22 00:00 UT   15 34 59.7   -22 01 13     2.848    2.992   88.1   19.8   104   15.0 
2026-08-23 00:00 UT   15 35 46.3   -22 01 57     2.861    2.990   87.4   19.7   104   15.0 
2026-08-24 00:00 UT   15 36 33.9   -22 02 44     2.874    2.989   86.6   19.7   104   15.0 
2026-08-25 00:00 UT   15 37 22.4   -22 03 35     2.886    2.988   85.8   19.7   104   15.0 
2026-08-26 00:00 UT   15 38 12.0   -22 04 28     2.899    2.986   85.0   19.7   104   15.0 


    Terminology:
            
    delta:  distance between minor planet and earth in AU
    radius: distance between minor planet and sun in AU
    magn:   magnitude (brightness) estimate    
    ra:     right ascension in hours (24h = 360deg)
    dec:    declination in degrees
    elong:  elongation in degrees (angle sun-earth-minor planet)    
    phase:  phase angle in degrees (angle sun-minor planet-earth)        
    AU:     Astronomical Unit (mean distance between earth and sun: 149597870.7 km
    

Orbital elements provided by the MPC (Minor Planet Center).
Calculations by a modified version of AAPlus, a C# implementation of the AA+ project by PJ Naughter from the algorithms presented in the book "Astronomical Algorithms" by Jean Meeus.
NGC2000 dso catalog and star labels from VizieR as provided by the Strasbourg astronomical Data Center.
Tycho2 catalog from the ESO archive.